STARLINK-2561 (48403 NORAD) Tracking and Keplerian Element Data

This shows tracking and keplerian element data for the satellite.

Feedback or suggestion? Click here.




ElementValue
Catalog48403
NameSTARLINK-2561
Epoch Orbit365
Epoch Day210.91668981
Epoch Year2021
RAAN340.6361
Inclination53.0485
Eccentricity0.0001439
Argument of Perigee75.4568
Mean Anonmoly127.5704
Mean Motion15.20022238
Decay Rate-0.01062448
L11 48403U 21038BC 21210.91668981 -.01062448 00000-0 -53179-1 0 9990
L22 48403 53.0485 340.6361 0001439 75.4568 127.5704 15.20022238 3656

Live tracking and technical data element details for STARLINK-2561 (NORAD 48403). STARLINK-2561 can be tracked NOW for your location showing map with azimuth and elevation plus other details from your city location.

Track the satellite on the map from your city or location and see movement details for azimuth, elevation, latitude, longitude, range, height, and movement on the map or in text.







IsCatalogInMostPopularTable: catalog: 48403, numindb: 27
Update: records affected: 1



GetName: 48403 STARLINK-2561

Hit Count: updated at: Sat, 31 Jul 2021 15:11:40 GMT